CW0009 Weather Reports


Display with metric or nautical units.
time (UTC)temp
F
wind
direction
speed
MPH
gust
MPH
rain 1hr
in
rain 24hr
in
rain mn
in
humidity
%
barometer
mb
20180721073037 77 320 6.0 7.0 0.00 0.00 0.00 72 1012.0
20180721072014 77 350 5.0 7.0 0.00 0.00 0.00 73 1012.0
20180721071016 76 15 2.0 6.0 0.00 0.00 0.00 75 1012.0
20180721070014 75 280 2.0 5.0 0.00 0.00 0.00 76 1012.0
20180721065015 74 30 1.0 5.0 0.00 0.00 0.00 77 1011.0
20180721064017 72 345 0.0 1.0 0.00 0.00 0.00 78 1011.0
20180721063016 70 30 0.0 0.0 0.00 0.00 0.00 79 1011.0
20180721062015 69 30 0.0 0.0 0.00 0.00 0.00 79 1011.0
20180721060036 67 30 0.0 0.0 0.00 0.00 0.00 79 1011.0
20180721055016 66 25 0.0 0.0 0.00 0.00 0.00 79 1011.0
20180721054015 65 25 0.0 0.0 0.00 0.00 0.00 79 1011.0
20180721053038 65 30 0.0 0.0 0.00 0.00 0.00 79 1011.0
20180721051015 65 30 0.0 0.0 0.00 0.00 0.00 79 1011.0
20180721045016 65 30 0.0 0.0 0.00 0.00 0.00 79 1011.0
20180721044016 66 30 0.0 0.0 0.00 0.00 0.00 79 1011.0
20180721043015 66 30 0.0 0.0 0.00 0.00 0.00 78 1011.0
20180721042016 66 30 0.0 0.0 0.00 0.00 0.00 79 1011.0
20180721041037 66 30 0.0 0.0 0.00 0.00 0.00 79 1011.0
20180721040014 67 30 0.0 0.0 0.00 0.00 0.00 79 1011.0
20180721035016 67 30 0.0 0.0 0.00 0.00 0.00 79 1010.0
20180721034016 67 30 0.0 0.0 0.00 0.00 0.00 78 1011.0
20180721033016 67 25 0.0 0.0 0.00 0.00 0.00 78 1011.0
20180721032037 67 25 0.0 0.0 0.00 0.00 0.00 78 1011.0
20180721031016 68 25 0.0 0.0 0.00 0.00 0.00 78 1011.0
20180721030014 68 25 0.0 0.0 0.00 0.00 0.00 78 1011.0
20180721025037 68 25 0.0 0.0 0.00 0.00 0.00 78 1011.0
20180721024016 68 25 0.0 0.0 0.00 0.00 0.00 78 1011.0
20180721023037 68 25 0.0 0.0 0.00 0.00 0.00 78 1011.0
20180721022016 68 25 0.0 0.0 0.00 0.00 0.00 77 1011.0
20180721021016 69 25 0.0 0.0 0.00 0.00 0.00 77 1011.0
20180721020013 69 25 0.0 0.0 0.00 0.00 0.00 77 1011.0
20180721015016 69 25 0.0 0.0 0.00 0.00 0.00 77 1011.0
20180721014016 69 25 0.0 0.0 0.00 0.00 0.00 77 1011.0
20180721013017 69 25 0.0 0.0 0.00 0.00 0.00 77 1011.0
20180721012016 69 25 0.0 0.0 0.00 0.00 0.00 77 1011.0
20180721011015 69 30 0.0 0.0 0.00 0.00 0.00 77 1011.0
20180721010014 69 30 0.0 0.0 0.00 0.00 0.00 76 1011.0
20180721005037 69 30 0.0 0.0 0.00 0.00 0.00 76 1011.0
20180721003017 69 25 0.0 0.0 0.00 0.00 0.00 75 1011.0
20180721002016 69 25 0.0 0.0 0.00 0.00 0.00 75 1011.0
20180721001016 69 25 1.0 1.0 0.00 0.00 0.00 74 1011.0
20180721000013 69 25 1.0 1.0 0.00 0.00 0.00 73 1011.0
20180720234016 69 40 2.0 5.0 0.00 0.00 0.00 74 1011.0
20180720233016 69 15 2.0 2.0 0.00 0.00 0.00 74 1011.0
20180720232018 69 5 3.0 7.0 0.00 0.00 0.00 73 1011.0
20180720231017 70 355 3.0 5.0 0.00 0.00 0.00 74 1012.0
20180720230014 70 30 1.0 3.0 0.00 0.00 0.00 74 1012.0
20180720225038 70 30 0.0 3.0 0.00 0.00 0.00 74 1012.0
20180720224016 70 30 0.0 0.0 0.00 0.00 0.00 74 1012.0
20180720223016 70 30 0.0 0.0 0.00 0.00 0.00 73 1012.0
20180720222015 70 30 1.0 2.0 0.00 0.00 0.00 73 1012.0
20180720221017 70 30 2.0 2.0 0.00 0.00 0.00 73 1012.0
20180720220014 70 30 1.0 3.0 0.00 0.00 0.00 72 1012.0
20180720215015 70 30 0.0 3.0 0.00 0.00 0.00 72 1012.0
20180720214016 70 30 0.0 0.0 0.00 0.00 0.00 72 1012.0
20180720213017 70 30 0.0 0.0 0.00 0.00 0.00 72 1012.0
20180720212016 70 30 0.0 0.0 0.00 0.00 0.00 72 1012.0
20180720211017 70 30 0.0 0.0 0.00 0.00 0.00 72 1012.0
20180720210014 71 30 0.0 0.0 0.00 0.00 0.00 72 1012.0
20180720205016 71 30 0.0 0.0 0.00 0.00 0.00 72 1012.0
20180720204015 71 30 0.0 0.0 0.00 0.00 0.00 71 1012.0
20180720203016 71 30 0.0 0.0 0.00 0.00 0.00 71 1012.0
20180720202016 71 30 0.0 0.0 0.00 0.00 0.00 70 1012.0
20180720201016 71 30 0.0 0.0 0.00 0.00 0.00 69 1012.0
20180720200036 71 30 0.0 0.0 0.00 0.00 0.00 69 1012.0
20180720195037 72 30 0.0 0.0 0.00 0.00 0.00 68 1012.0
20180720194016 72 30 0.0 0.0 0.00 0.00 0.00 68 1012.0
20180720193016 72 30 1.0 0.0 0.00 0.00 0.00 66 1012.0
20180720192016 72 30 2.0 3.0 0.00 0.00 0.00 64 1012.0
20180720191016 72 320 3.0 3.0 0.00 0.00 0.00 64 1011.0
20180720190034 72 355 6.0 10.0 0.00 0.00 0.00 63 1011.0
20180720185016 73 340 6.0 10.0 0.00 0.00 0.00 62 1011.0
20180720184037 73 320 3.0 6.0 0.00 0.00 0.00 61 1011.0
20180720183037 73 335 5.0 7.0 0.00 0.00 0.00 61 1011.0
20180720182015 73 320 3.0 6.0 0.00 0.00 0.00 60 1011.0
20180720181016 73 315 5.0 6.0 0.00 0.00 0.00 59 1012.0
20180720175015 74 325 3.0 6.0 0.00 0.00 0.00 59 1012.0
20180720174016 74 320 3.0 5.0 0.00 0.00 0.00 59 1012.0
20180720173016 75 255 2.0 5.0 0.00 0.00 0.00 57 1012.0
20180720172037 75 270 1.0 3.0 0.00 0.00 0.00 57 1012.0
20180720171038 75 245 1.0 1.0 0.00 0.00 0.00 56 1012.0
20180720170014 76 285 2.0 3.0 0.00 0.00 0.00 54 1012.0
20180720165016 76 275 5.0 5.0 0.00 0.00 0.00 53 1012.0
20180720164015 76 245 5.0 7.0 0.00 0.00 0.00 52 1012.0
20180720163017 77 245 5.0 6.0 0.00 0.00 0.00 53 1012.0
20180720162016 77 235 5.0 8.0 0.00 0.00 0.00 53 1012.0
20180720161037 77 265 5.0 6.0 0.00 0.00 0.00 53 1012.0
20180720160014 77 230 5.0 7.0 0.00 0.00 0.00 53 1012.0
20180720155016 77 265 5.0 5.0 0.00 0.00 0.00 53 1013.0
20180720154016 77 260 5.0 7.0 0.00 0.00 0.00 53 1013.0
20180720153016 78 295 5.0 5.0 0.00 0.00 0.00 54 1013.0
20180720152016 78 245 6.0 5.0 0.00 0.00 0.00 53 1013.0
20180720151016 78 270 6.0 9.0 0.00 0.00 0.00 53 1013.0
20180720150013 78 260 7.0 7.0 0.00 0.00 0.00 53 1013.0
20180720145015 78 255 6.0 10.0 0.00 0.00 0.00 52 1013.0
20180720144016 78 270 6.0 6.0 0.00 0.00 0.00 52 1013.0
20180720142014 79 265 6.0 8.0 0.00 0.00 0.00 49 1013.0
20180720141037 79 245 6.0 8.0 0.00 0.00 0.00 48 1013.0
20180720140013 80 275 7.0 8.0 0.00 0.00 0.00 48 1013.0
20180720135037 80 305 7.0 9.0 0.00 0.00 0.00 48 1013.0
20180720134016 80 305 6.0 9.0 0.00 0.00 0.00 48 1013.0
20180720133016 81 240 6.0 7.0 0.00 0.00 0.00 47 1013.0
20180720132015 82 245 6.0 7.0 0.00 0.00 0.00 47 1013.0
20180720131015 82 260 6.0 7.0 0.00 0.00 0.00 46 1013.0
20180720130036 83 255 7.0 7.0 0.00 0.00 0.00 47 1013.0
20180720125018 84 290 7.0 9.0 0.00 0.00 0.00 46 1013.0
20180720124014 85 270 6.0 9.0 0.00 0.00 0.00 45 1013.0
20180720123044 85 265 6.0 7.0 0.00 0.00 0.00 44 1013.0
20180720122037 85 295 7.0 7.0 0.00 0.00 0.00 43 1013.0
20180720121014 86 300 6.0 9.0 0.00 0.00 0.00 43 1013.0
20180720120013 86 280 5.0 8.0 0.00 0.00 0.00 44 1014.0
20180720115015 87 290 6.0 8.0 0.00 0.00 0.00 44 1013.0
20180720114036 87 350 5.0 8.0 0.00 0.00 0.00 44 1013.0
20180720113016 87 60 5.0 7.0 0.00 0.00 0.00 43 1014.0
20180720112015 87 35 5.0 7.0 0.00 0.00 0.00 44 1014.0
20180720111015 86 20 6.0 7.0 0.00 0.00 0.00 45 1022.0
20180720110013 86 330 6.0 7.0 0.00 0.00 0.00 46 1014.0
20180720105014 86 20 5.0 6.0 0.00 0.00 0.00 48 1014.0
20180720104015 79 310 5.0 1.0 0.00 0.00 0.00 63 1014.0
20180720075014 76 335 1.0 6.0 0.00 0.00 0.00 72 1015.0
20180720074016 76 290 1.0 3.0 0.00 0.00 0.00 73 1015.0